,,Stat5,,Stat1,,Stat2,,Stat3,,Stat4,,Wind1,,Wind1,
time,status,PA1M_AVG,status,PR1M_SUM,status,RH1M_AVG,status,SR1M_AVG,status,TA1M_AVG,status,W1dAve1m,status,W1sAve1m,
2001-01-07, 00:00:00,VALID,918.743,VALID,0,VALID,92.995,VALID,-0.0339617,VALID,20.1976,VALID,89,VALID,0.930773,
2001-01-07, 00:01:00,VALID,918.743,VALID,0,VALID,92.8627,VALID,-0.0169808,VALID,20.2135,VALID,74,VALID,0.615625,
2001-01-07, 00:02:00,VALID,918.727,VALID,0,VALID,92.7165,VALID,-0.0339617,VALID,20.2229,VALID,48,VALID,0.735894,
2001-01-07, 00:03:00,VALID,918.727,VALID,0,VALID,92.9047,VALID,-0.0339617,VALID,20.2234,VALID,83,VALID,0.25185,
2001-01-07, 00:04:00,VALID,918.711,VALID,0,VALID,92.5385,VALID,-0.0339617,VALID,20.2164,VALID,37,VALID,0.536607,
2001-01-07, 00:05:00,VALID,918.686,VALID,0,VALID,91.4131,VALID,-0.0169808,VALID,20.2162,VALID,354,VALID,0.597556,
2001-01-07, 00:06:00,VALID,918.664,VALID,0,VALID,91.9014,VALID,0,VALID,20.2587,VALID,1,VALID,0.546186,
2001-01-07, 00:07:00,VALID,918.641,VALID,0,VALID,91.7742,VALID,-0.0169808,VALID,20.2714,VALID,354,VALID,0.244038,
2001-01-07, 00:08:00,VALID,918.62,VALID,0,VALID,92.583,VALID,0,VALID,20.2716,VALID,343,VALID,0,
2001-01-07, 00:09:00,VALID,918.583,VALID,0,VALID,92.4431,VALID,-0.0509425,VALID,20.2684,VALID,343,VALID,0,
2001-01-07, 00:10:00,VALID,918.575,VALID,0,VALID,92.3579,VALID,-0.0169808,VALID,20.2522,VALID,335,VALID,0,
2001-01-07, 00:11:00,VALID,918.557,VALID,0,VALID,92.714,VALID,0,VALID,20.2652,VALID,314,VALID,0,
2001-01-07, 00:12:00,VALID,918.541,VALID,0,VALID,93.1603,VALID,-0.0169808,VALID,20.2488,VALID,314,VALID,0,
2001-01-07, 00:13:00,VALID,918.522,VALID,0,VALID,93.4846,VALID,-0.0169808,VALID,20.2361,VALID,314,VALID,0,
2001-01-07, 00:14:00,VALID,918.513,VALID,0,VALID,93.6956,VALID,0,VALID,20.2192,VALID,314,VALID,0,
2001-01-07, 00:15:00,VALID,918.48,VALID,0,VALID,93.8419,VALID,-0.0509425,VALID,20.2294,VALID,6,VALID,0,
2001-01-07, 00:16:00,VALID,918.466,VALID,0,VALID,93.9449,VALID,-0.0169808,VALID,20.2266,VALID,82,VALID,0,
2001-01-07, 00:17:00,VALID,918.441,VALID,0,VALID,94.0428,VALID,-0.0339617,VALID,20.2164,VALID,85,VALID,0,
2001-01-07, 00:18:00,VALID,918.416,VALID,0,VALID,94.3403,VALID,0,VALID,20.2132,VALID,85,VALID,0,
2001-01-07, 00:19:00,VALID,918.41,VALID,0,VALID,94.451,VALID,-0.0169808,VALID,20.2192,VALID,85,VALID,0,
2001-01-07, 00:20:00,VALID,918.41,VALID,0,VALID,94.5794,VALID,-0.0169808,VALID,20.2396,VALID,85,VALID,0,
2001-01-07, 00:21:00,VALID,918.397,VALID,0,VALID,94.554,VALID,-0.0169808,VALID,20.2396,VALID,84,VALID,0,
2001-01-07, 00:22:00,VALID,918.386,VALID,0,VALID,94.587,VALID,-0.0339617,VALID,20.2425,VALID,83,VALID,0,
2001-01-07, 00:23:00,VALID,918.376,VALID,0,VALID,94.6595,VALID,-0.0509425,VALID,20.2294,VALID,94,VALID,0,
2001-01-07, 00:24:00,VALID,918.36,VALID,0,VALID,94.7473,VALID,-0.0169808,VALID,20.2224,VALID,103,VALID,0,
2001-01-07, 00:25:00,VALID,918.35,VALID,0,VALID,94.7422,VALID,0,VALID,20.2328,VALID,103,VALID,0,
2001-01-07, 00:26:00,VALID,918.342,VALID,0,VALID,94.6748,VALID,-0.0509425,VALID,20.2294,VALID,103,VALID,0,
2001-01-07, 00:27:00,VALID,918.328,VALID,0,VALID,94.5756,VALID,0,VALID,20.2229,VALID,103,VALID,0,
2001-01-07, 00:28:00,VALID,918.319,VALID,0,VALID,94.4141,VALID,-0.0169808,VALID,20.2162,VALID,106,VALID,0,
2001-01-07, 00:29:00,VALID,918.298,VALID,0,VALID,94.259,VALID,-0.0169808,VALID,20.1874,VALID,119,VALID,0,
2001-01-07, 00:30:00,VALID,918.286,VALID,0,VALID,94.025,VALID,0,VALID,20.1682,VALID,120,VALID,0,
2001-01-07, 00:31:00,VALID,918.268,VALID,0,VALID,93.7961,VALID,-0.0339617,VALID,20.1652,VALID,120,VALID,0,
2001-01-07, 00:32:00,VALID,918.264,VALID,0,VALID,93.8101,VALID,-0.0339617,VALID,20.1553,VALID,120,VALID,0,
2001-01-07, 00:33:00,VALID,918.239,VALID,0,VALID,93.5341,VALID,-0.0509425,VALID,20.1518,VALID,120,VALID,0,
2001-01-07, 00:34:00,VALID,918.21,VALID,0,VALID,92.5041,VALID,0,VALID,20.1294,VALID,119,VALID,0,
2001-01-07, 00:35:00,VALID,918.196,VALID,0,VALID,91.9128,VALID,-0.0169808,VALID,20.0835,VALID,89,VALID,0,
2001-01-07, 00:36:00,VALID,918.166,VALID,0,VALID,91.0037,VALID,0,VALID,20.0745,VALID,53,VALID,0,
2001-01-07, 00:37:00,VALID,918.141,VALID,0,VALID,91.5606,VALID,-0.0169808,VALID,20.0807,VALID,53,VALID,0,
2001-01-07, 00:38:00,VALID,918.11,VALID,0,VALID,92.2689,VALID,-0.0169808,VALID,20.0874,VALID,53,VALID,0,
2001-01-07, 00:39:00,VALID,918.09,VALID,0,VALID,92.6466,VALID,-0.0169808,VALID,20.0872,VALID,34,VALID,0,
2001-01-07, 00:40:00,VALID,918.07,VALID,0,VALID,93.3103,VALID,-0.0169808,VALID,20.0877,VALID,33,VALID,0,
2001-01-07, 00:41:00,VALID,918.054,VALID,0,VALID,93.8292,VALID,0,VALID,20.1039,VALID,33,VALID,0,
2001-01-07, 00:42:00,VALID,918.043,VALID,0,VALID,93.7745,VALID,-0.0339617,VALID,20.1066,VALID,43,VALID,0,
2001-01-07, 00:43:00,VALID,918.019,VALID,0,VALID,93.9169,VALID,-0.0509425,VALID,20.0874,VALID,51,VALID,0,
2001-01-07, 00:44:00,VALID,918.008,VALID,0,VALID,94.1127,VALID,0,VALID,20.0942,VALID,51,VALID,0,
2001-01-07, 00:45:00,VALID,917.984,VALID,0,VALID,94.1318,VALID,-0.0169808,VALID,20.0974,VALID,51,VALID,0,
2001-01-07, 00:46:00,VALID,917.972,VALID,0,VALID,94.1738,VALID,0,VALID,20.0912,VALID,51,VALID,0,
2001-01-07, 00:47:00,VALID,917.927,VALID,0,VALID,94.245,VALID,-0.0339617,VALID,20.0879,VALID,70,VALID,0,
2001-01-07, 00:48:00,VALID,917.891,VALID,0,VALID,94.0619,VALID,-0.0339617,VALID,20.0613,VALID,92,VALID,0,
2001-01-07, 00:49:00,VALID,917.85,VALID,0,VALID,94.0288,VALID,-0.0169808,VALID,20.0096,VALID,96,VALID,0,
2001-01-07, 00:50:00,VALID,917.821,VALID,0,VALID,94.0924,VALID,-0.0509425,VALID,19.9808,VALID,101,VALID,0,
2001-01-07, 00:51:00,VALID,917.785,VALID,0,VALID,94.189,VALID,0,VALID,19.9542,VALID,101,VALID,0,
2001-01-07, 00:52:00,VALID,917.768,VALID,0,VALID,94.1763,VALID,0.0169808,VALID,19.9249,VALID,101,VALID,0,
2001-01-07, 00:53:00,VALID,917.771,VALID,0,VALID,94.0975,VALID,-0.0169808,VALID,19.8767,VALID,101,VALID,0,
2001-01-07, 00:54:00,VALID,917.753,VALID,0,VALID,94.2971,VALID,0,VALID,19.8543,VALID,101,VALID,0,
2001-01-07, 00:55:00,VALID,917.746,VALID,0,VALID,94.3734,VALID,0,VALID,19.8347,VALID,101,VALID,0,
2001-01-07, 00:56:00,VALID,917.751,VALID,0,VALID,94.4472,VALID,0.0339617,VALID,19.8347,VALID,101,VALID,0,
2001-01-07, 00:57:00,VALID,917.737,VALID,0,VALID,94.4179,VALID,0.0339617,VALID,19.8215,VALID,107,VALID,0,
2001-01-07, 00:58:00,VALID,917.725,VALID,0,VALID,94.161,VALID,0.0169808,VALID,19.8056,VALID,123,VALID,0,
2001-01-07, 00:59:00,VALID,917.705,VALID,0,VALID,93.88,VALID,0,VALID,19.7638,VALID,124,VALID,0,
2001-01-07, 01:00:00,VALID,917.699,VALID,0,VALID,93.7681,VALID,0.0169808,VALID,19.7084,VALID,124,VALID,0,
2001-01-07, 01:01:00,VALID,917.676,VALID,0,VALID,93.7605,VALID,0,VALID,19.6987,VALID,124,VALID,0,
2001-01-07, 01:02:00,VALID,917.685,VALID,0,VALID,93.5456,VALID,0,VALID,19.6791,VALID,129,VALID,0,
2001-01-07, 01:03:00,VALID,917.672,VALID,0,VALID,93.1781,VALID,0,VALID,19.6925,VALID,135,VALID,0,
2001-01-07, 01:04:00,VALID,917.67,VALID,0,VALID,92.9594,VALID,-0.0169808,VALID,19.693,VALID,141,VALID,0,
2001-01-07, 01:05:00,VALID,917.667,VALID,0,VALID,93.0039,VALID,0,VALID,19.6704,VALID,170,VALID,0,
2001-01-07, 01:06:00,VALID,917.654,VALID,0,VALID,93.1323,VALID,0,VALID,19.6614,VALID,176,VALID,0,
2001-01-07, 01:07:00,VALID,917.628,VALID,0,VALID,93.3078,VALID,-0.0169808,VALID,19.612,VALID,180,VALID,0,
2001-01-07, 01:08:00,VALID,917.62,VALID,0,VALID,93.571,VALID,0,VALID,19.5996,VALID,184,VALID,0,
2001-01-07, 01:09:00,VALID,917.599,VALID,0,VALID,93.8724,VALID,0,VALID,19.57,VALID,187,VALID,0,
2001-01-07, 01:10:00,VALID,917.576,VALID,0,VALID,94.2157,VALID,0,VALID,19.5471,VALID,190,VALID,0,
2001-01-07, 01:11:00,VALID,917.569,VALID,0,VALID,94.3378,VALID,0,VALID,19.5474,VALID,190,VALID,0,
2001-01-07, 01:12:00,VALID,917.566,VALID,0,VALID,94.3988,VALID,0,VALID,19.5342,VALID,190,VALID,0,
2001-01-07, 01:13:00,VALID,917.551,VALID,0,VALID,94.568,VALID,0,VALID,19.5312,VALID,190,VALID,0,
2001-01-07, 01:14:00,VALID,917.548,VALID,0,VALID,94.7969,VALID,0,VALID,19.5476,VALID,190,VALID,0,
2001-01-07, 01:15:00,VALID,917.553,VALID,0,VALID,94.6824,VALID,0,VALID,19.5509,VALID,187,VALID,0,
2001-01-07, 01:16:00,VALID,917.55,VALID,0,VALID,94.676,VALID,0,VALID,19.5379,VALID,184,VALID,0,
2001-01-07, 01:17:00,VALID,917.536,VALID,0,VALID,94.8007,VALID,0,VALID,19.5446,VALID,181,VALID,0,
2001-01-07, 01:18:00,VALID,917.549,VALID,0,VALID,94.835,VALID,-0.0169808,VALID,19.5449,VALID,181,VALID,0,
2001-01-07, 01:19:00,VALID,917.56,VALID,0,VALID,95.0079,VALID,0,VALID,19.5546,VALID,181,VALID,0,
2001-01-07, 01:20:00,VALID,917.551,VALID,0,VALID,95.144,VALID,0,VALID,19.5476,VALID,180,VALID,0,
2001-01-07, 01:21:01,VALID,917.546,VALID,0,VALID,95.2661,VALID,0.0339617,VALID,19.5441,VALID,144,VALID,0,
2001-01-07, 01:22:00,VALID,917.53,VALID,0,VALID,95.1504,VALID,0.0169808,VALID,19.5541,VALID,137,VALID,0,
2001-01-07, 01:23:00,VALID,917.521,VALID,0,VALID,95.3805,VALID,0.0339617,VALID,19.5506,VALID,186,VALID,0,
2001-01-07, 01:24:00,VALID,917.501,VALID,0,VALID,95.6654,VALID,0.0169808,VALID,19.5501,VALID,191,VALID,0,
2001-01-07, 01:25:00,VALID,917.467,VALID,0,VALID,96.2007,VALID,0,VALID,19.567,VALID,202,VALID,0,
2001-01-07, 01:26:00,VALID,917.431,VALID,0,VALID,96.5097,VALID,0,VALID,19.5774,VALID,202,VALID,0,
2001-01-07, 01:27:00,VALID,917.423,VALID,0,VALID,96.6318,VALID,-0.0339617,VALID,19.5608,VALID,201,VALID,0,
2001-01-07, 01:28:00,VALID,917.381,VALID,0,VALID,96.7513,VALID,0.0169808,VALID,19.5481,VALID,201,VALID,0,
2001-01-07, 01:29:01,VALID,917.365,VALID,0,VALID,96.9001,VALID,0,VALID,19.5218,VALID,201,VALID,0,
2001-01-07, 01:30:00,VALID,917.368,VALID,0,VALID,96.8403,VALID,0.0169808,VALID,19.4825,VALID,201,VALID,0,
2001-01-07, 01:31:01,VALID,917.369,VALID,0,VALID,96.7399,VALID,0,VALID,19.4606,VALID,201,VALID,0,
2001-01-07, 01:32:00,VALID,917.381,VALID,0,VALID,96.5885,VALID,-0.0169808,VALID,19.4276,VALID,180,VALID,0,
2001-01-07, 01:33:01,VALID,917.39,VALID,0,VALID,96.4487,VALID,0,VALID,19.396,VALID,172,VALID,0,
2001-01-07, 01:34:00,VALID,917.401,VALID,0,VALID,96.5351,VALID,0,VALID,19.3866,VALID,159,VALID,0,
2001-01-07, 01:35:00,VALID,917.414,VALID,0,VALID,96.6839,VALID,0,VALID,19.3762,VALID,144,VALID,0,
2001-01-07, 01:36:00,VALID,917.423,VALID,0,VALID,96.6241,VALID,0,VALID,19.3414,VALID,138,VALID,0,
2001-01-07, 01:37:00,VALID,917.432,VALID,0,VALID,96.6979,VALID,0.0169808,VALID,19.3183,VALID,139,VALID,0,
2001-01-07, 01:38:00,VALID,917.438,VALID,0,VALID,96.8174,VALID,0.0169808,VALID,19.3153,VALID,151,VALID,0,
2001-01-07, 01:39:00,VALID,917.418,VALID,0,VALID,96.8912,VALID,0,VALID,19.312,VALID,173,VALID,0,
2001-01-07, 01:40:00,VALID,917.404,VALID,0,VALID,96.8861,VALID,0,VALID,19.2666,VALID,169,VALID,0,
2001-01-07, 01:41:01,VALID,917.392,VALID,0,VALID,97.0641,VALID,0,VALID,19.238,VALID,179,VALID,0,
2001-01-07, 01:42:00,VALID,917.353,VALID,0,VALID,97.2498,VALID,0,VALID,19.196,VALID,211,VALID,0,
2001-01-07, 01:43:01,VALID,917.326,VALID,0,VALID,97.4431,VALID,0.0169808,VALID,19.1801,VALID,208,VALID,0,
2001-01-07, 01:44:00,VALID,917.284,VALID,0,VALID,97.6719,VALID,-0.0169808,VALID,19.1637,VALID,215,VALID,0,
2001-01-07, 01:45:01,VALID,917.273,VALID,0,VALID,97.8373,VALID,0,VALID,19.1475,VALID,226,VALID,0,
2001-01-07, 01:46:00,VALID,917.25,VALID,0,VALID,97.9975,VALID,0,VALID,19.1445,VALID,235,VALID,0.322716,
2001-01-07, 01:47:00,VALID,917.236,VALID,0,VALID,98.075,VALID,-0.0169808,VALID,19.1443,VALID,227,VALID,0.633984,
2001-01-07, 01:48:00,VALID,917.218,VALID,0,VALID,98.178,VALID,-0.0339617,VALID,19.1637,VALID,229,VALID,0.717105,
2001-01-07, 01:49:00,VALID,917.192,VALID,0,VALID,98.2531,VALID,-0.0169808,VALID,19.1838,VALID,228,VALID,0.574805,
2001-01-07, 01:50:00,VALID,917.177,VALID,0,VALID,98.2645,VALID,0,VALID,19.2089,VALID,214,VALID,0.320112,
2001-01-07, 01:51:00,VALID,917.166,VALID,0,VALID,98.2098,VALID,-0.0169808,VALID,19.2027,VALID,189,VALID,0.176563,
2001-01-07, 01:52:00,VALID,917.128,VALID,0,VALID,98.1488,VALID,0,VALID,19.1997,VALID,186,VALID,0,
2001-01-07, 01:53:01,VALID,917.113,VALID,0,VALID,98.1246,VALID,0,VALID,19.1962,VALID,200,VALID,0.0763672,
2001-01-07, 01:54:00,VALID,917.075,VALID,0,VALID,98.1119,VALID,-0.0169808,VALID,19.1928,VALID,202,VALID,0.166667,
2001-01-07, 01:55:01,VALID,917.05,VALID,0,VALID,98.0992,VALID,0,VALID,19.19,VALID,202,VALID,0,
2001-01-07, 01:56:00,VALID,917.035,VALID,0,VALID,98.1234,VALID,0,VALID,19.19,VALID,202,VALID,0,
2001-01-07, 01:57:01,VALID,917.021,VALID,0,VALID,98.145,VALID,0,VALID,19.1995,VALID,202,VALID,0,
2001-01-07, 01:58:00,VALID,917.035,VALID,0,VALID,98.0611,VALID,0,VALID,19.1833,VALID,197,VALID,0,
2001-01-07, 01:59:00,VALID,917.037,VALID,0,VALID,97.8983,VALID,0,VALID,19.148,VALID,165,VALID,0,
2001-01-07, 02:00:00,VALID,917.058,VALID,0,VALID,97.8093,VALID,0,VALID,19.1187,VALID,159,VALID,0,
2001-01-07, 02:01:00,VALID,917.061,VALID,0,VALID,97.9059,VALID,-0.0169808,VALID,19.1423,VALID,159,VALID,0,
2001-01-07, 02:02:00,VALID,917.05,VALID,0,VALID,97.897,VALID,0,VALID,19.1321,VALID,171,VALID,0,
2001-01-07, 02:03:00,VALID,917.048,VALID,0,VALID,97.9034,VALID,-0.0169808,VALID,19.1192,VALID,202,VALID,0,
2001-01-07, 02:04:00,VALID,917.04,VALID,0,VALID,97.9263,VALID,-0.0509425,VALID,19.0968,VALID,207,VALID,0.0271382,
2001-01-07, 02:05:01,VALID,917.044,VALID,0,VALID,97.9275,VALID,-0.0169808,VALID,19.0707,VALID,206,VALID,0.629687,
2001-01-07, 02:06:00,VALID,917.024,VALID,0,VALID,97.8919,VALID,-0.0509425,VALID,19.0384,VALID,203,VALID,0.53766,
2001-01-07, 02:07:01,VALID,917.001,VALID,0,VALID,97.967,VALID,-0.0169808,VALID,19.0324,VALID,201,VALID,0.601172,
2001-01-07, 02:08:00,VALID,916.972,VALID,0,VALID,98.0839,VALID,-0.0339617,VALID,19.019,VALID,191,VALID,0.739309,
2001-01-07, 02:09:01,VALID,916.955,VALID,0,VALID,98.0623,VALID,-0.0509425,VALID,19.023,VALID,185,VALID,0.493945,
2001-01-07, 02:10:00,VALID,916.943,VALID,0,VALID,97.9657,VALID,-0.0169808,VALID,18.9967,VALID,175,VALID,0.347556,
2001-01-07, 02:11:00,VALID,916.937,VALID,0,VALID,97.9492,VALID,0,VALID,18.9863,VALID,186,VALID,0.228516,
2001-01-07, 02:12:00,VALID,916.937,VALID,0,VALID,97.9199,VALID,-0.0339617,VALID,18.9997,VALID,190,VALID,0,
2001-01-07, 02:13:00,VALID,916.934,VALID,0,VALID,97.8322,VALID,0,VALID,18.9932,VALID,190,VALID,0,
2001-01-07, 02:14:00,VALID,916.928,VALID,0,VALID,97.5893,VALID,0,VALID,18.9706,VALID,190,VALID,0,
2001-01-07, 02:15:00,VALID,916.946,VALID,0,VALID,97.4303,VALID,0,VALID,18.9482,VALID,190,VALID,0,
2001-01-07, 02:16:00,VALID,916.958,VALID,0,VALID,97.4469,VALID,-0.0169808,VALID,18.9482,VALID,190,VALID,0,
2001-01-07, 02:17:01,VALID,916.953,VALID,0,VALID,97.5473,VALID,-0.0509425,VALID,18.9614,VALID,190,VALID,0,
2001-01-07, 02:18:00,VALID,916.955,VALID,0,VALID,97.6478,VALID,-0.0169808,VALID,18.9939,VALID,190,VALID,0,
2001-01-07, 02:19:01,VALID,916.95,VALID,0,VALID,97.6007,VALID,-0.0339617,VALID,18.9932,VALID,190,VALID,0,
2001-01-07, 02:20:00,VALID,916.94,VALID,0,VALID,97.457,VALID,-0.0679233,VALID,18.9842,VALID,190,VALID,0,
2001-01-07, 02:21:01,VALID,916.932,VALID,0,VALID,97.5372,VALID,-0.0509425,VALID,19.0131,VALID,196,VALID,0,
2001-01-07, 02:22:01,VALID,916.906,VALID,0,VALID,97.4049,VALID,0,VALID,19.0227,VALID,196,VALID,0,
2001-01-07, 02:23:01,VALID,916.886,VALID,0,VALID,97.2231,VALID,-0.0339617,VALID,18.9902,VALID,196,VALID,0,
2001-01-07, 02:24:01,VALID,916.862,VALID,0,VALID,97.3604,VALID,-0.0509425,VALID,19.0128,VALID,203,VALID,0,
2001-01-07, 02:25:01,VALID,916.841,VALID,0,VALID,97.4456,VALID,0,VALID,19.0292,VALID,204,VALID,0,
2001-01-07, 02:26:00,VALID,916.818,VALID,0,VALID,97.2727,VALID,-0.0339617,VALID,19.0131,VALID,205,VALID,0,
2001-01-07, 02:27:01,VALID,916.813,VALID,0,VALID,96.9535,VALID,-0.0509425,VALID,18.9715,VALID,205,VALID,0,
2001-01-07, 02:28:00,VALID,916.798,VALID,0,VALID,96.82,VALID,0.0169808,VALID,18.9417,VALID,298,VALID,0,
2001-01-07, 02:29:01,VALID,916.799,VALID,0,VALID,96.7182,VALID,0,VALID,18.9484,VALID,348,VALID,0,
2001-01-07, 02:30:00,VALID,916.787,VALID,0,VALID,95.8548,VALID,0,VALID,18.8548,VALID,349,VALID,0,
2001-01-07, 02:31:01,VALID,916.792,VALID,0,VALID,95.5458,VALID,-0.0169808,VALID,18.7581,VALID,349,VALID,0,
2001-01-07, 02:32:01,VALID,916.788,VALID,0,VALID,95.3297,VALID,0,VALID,18.6409,VALID,76,VALID,0.315995,
2001-01-07, 02:33:01,VALID,916.773,VALID,0,VALID,95.6615,VALID,0.0169808,VALID,18.5546,VALID,108,VALID,1.09766,
2001-01-07, 02:34:01,VALID,916.778,VALID,0,VALID,96.2719,VALID,-0.0169808,VALID,18.4831,VALID,103,VALID,0.802484,
2001-01-07, 02:35:01,VALID,916.777,VALID,0,VALID,96.427,VALID,-0.0169808,VALID,18.4256,VALID,104,VALID,0.652148,
2001-01-07, 02:36:01,VALID,916.768,VALID,0,VALID,96.7233,VALID,-0.0339617,VALID,18.3712,VALID,104,VALID,0.46176,
2001-01-07, 02:37:01,VALID,916.746,VALID,0,VALID,96.8034,VALID,-0.0339617,VALID,18.3354,VALID,108,VALID,0.616992,
2001-01-07, 02:38:01,VALID,916.732,VALID,0,VALID,96.8746,VALID,-0.0849042,VALID,18.3103,VALID,107,VALID,0.748598,
2001-01-07, 02:39:01,VALID,916.726,VALID,0,VALID,97.1582,VALID,-0.0679233,VALID,18.2872,VALID,106,VALID,0.803711,
2001-01-07, 02:40:01,VALID,916.708,VALID,0,VALID,97.2739,VALID,-0.0849042,VALID,18.2454,VALID,106,VALID,0.634046,
2001-01-07, 02:41:01,VALID,916.695,VALID,0,VALID,97.5194,VALID,-0.0339617,VALID,18.2291,VALID,108,VALID,0.575977,
2001-01-07, 02:42:01,VALID,916.699,VALID,0,VALID,97.7203,VALID,-0.0339617,VALID,18.2288,VALID,108,VALID,0.339343,
2001-01-07, 02:43:01,VALID,916.699,VALID,0,VALID,97.9326,VALID,0.0509425,VALID,18.2438,VALID,114,VALID,0,
2001-01-07, 02:44:01,VALID,916.699,VALID,0,VALID,98.1323,VALID,0.0849042,VALID,18.2828,VALID,121,VALID,0,
2001-01-07, 02:45:01,VALID,916.682,VALID,0,VALID,98.1335,VALID,0.0509425,VALID,18.2927,VALID,121,VALID,0,
2001-01-07, 02:46:01,VALID,916.663,VALID,0,VALID,97.9708,VALID,0.0339617,VALID,18.2572,VALID,173,VALID,0,
2001-01-07, 02:47:01,VALID,916.658,VALID,0,VALID,97.9479,VALID,0.0339617,VALID,18.2314,VALID,229,VALID,0,
2001-01-07, 02:48:01,VALID,916.646,VALID,0,VALID,98.0611,VALID,0.0509425,VALID,18.2346,VALID,219,VALID,0.733347,
2001-01-07, 02:49:01,VALID,916.633,VALID,0,VALID,98.2365,VALID,0.0679233,VALID,18.2605,VALID,210,VALID,0.713867,
2001-01-07, 02:50:01,VALID,916.62,VALID,0,VALID,98.3548,VALID,0.0169808,VALID,18.2794,VALID,204,VALID,0.528646,
2001-01-07, 02:51:01,VALID,916.625,VALID,0,VALID,98.5366,VALID,-0.0849042,VALID,18.3264,VALID,190,VALID,0.650195,
2001-01-07, 02:52:01,VALID,916.616,VALID,0,VALID,98.6155,VALID,-0.118866,VALID,18.3592,VALID,183,VALID,0.560444,
2001-01-07, 02:53:01,VALID,916.615,VALID,0,VALID,98.501,VALID,-0.118866,VALID,18.343,VALID,160,VALID,0.664864,
2001-01-07, 02:54:01,VALID,916.595,VALID,0,VALID,98.4858,VALID,-0.0849042,VALID,18.2976,VALID,159,VALID,0.639623,
2001-01-07, 02:55:01,VALID,916.604,VALID,0,VALID,98.3764,VALID,-0.101885,VALID,18.272,VALID,158,VALID,0.721289,
2001-01-07, 02:56:01,VALID,916.602,VALID,0,VALID,98.4731,VALID,-0.101885,VALID,18.2556,VALID,164,VALID,0.733964,
2001-01-07, 02:57:00,VALID,916.597,VALID,0,VALID,98.4247,VALID,-0.101885,VALID,18.2328,VALID,175,VALID,0.746094,
2001-01-07, 02:58:00,VALID,916.578,VALID,0,VALID,98.59,VALID,-0.0509425,VALID,18.2198,VALID,191,VALID,1.02644,
2001-01-07, 02:59:00,VALID,916.556,VALID,0,VALID,98.707,VALID,-0.0679233,VALID,18.2295,VALID,194,VALID,1.04238,
2001-01-07, 03:00:00,VALID,916.531,VALID,0,VALID,98.7757,VALID,-0.0679233,VALID,18.239,VALID,200,VALID,0.983347,
2001-01-07, 03:01:00,VALID,916.509,VALID,0,VALID,98.8469,VALID,-0.0679233,VALID,18.2427,VALID,200,VALID,0.874414,
2001-01-07, 03:02:00,VALID,916.48,VALID,0,VALID,98.9041,VALID,-0.101885,VALID,18.2556,VALID,194,VALID,0.77504,
2001-01-07, 03:03:00,VALID,916.474,VALID,0,VALID,98.9232,VALID,-0.0849042,VALID,18.2556,VALID,195,VALID,0.966016,
2001-01-07, 03:04:00,VALID,916.456,VALID,0,VALID,98.9423,VALID,-0.101885,VALID,18.2521,VALID,192,VALID,1.05058,
2001-01-07, 03:05:00,VALID,916.46,VALID,0,VALID,98.9741,VALID,-0.0679233,VALID,18.2459,VALID,189,VALID,1.04277,
2001-01-07, 03:06:00,VALID,916.454,VALID,0,VALID,99.0008,VALID,-0.0679233,VALID,18.2395,VALID,183,VALID,0.861779,
2001-01-07, 03:07:00,VALID,916.447,VALID,0,VALID,99.0211,VALID,-0.0679233,VALID,18.2392,VALID,174,VALID,0.738867,
2001-01-07, 03:08:00,VALID,916.41,VALID,0,VALID,99.0415,VALID,-0.0509425,VALID,18.2099,VALID,173,VALID,0.803454,
2001-01-07, 03:09:00,VALID,916.381,VALID,0,VALID,99.1508,VALID,-0.0339617,VALID,18.2524,VALID,181,VALID,0.916406,
2001-01-07, 03:10:00,VALID,916.352,VALID,0,VALID,99.1318,VALID,-0.0339617,VALID,18.275,VALID,185,VALID,0.804487,
2001-01-07, 03:11:00,VALID,916.352,VALID,0,VALID,99.0847,VALID,0,VALID,18.2487,VALID,191,VALID,0.572852,
2001-01-07, 03:12:00,VALID,916.358,VALID,0,VALID,99.086,VALID,-0.0849042,VALID,18.2168,VALID,187,VALID,0.780633,
2001-01-07, 03:13:00,VALID,916.325,VALID,0,VALID,99.1165,VALID,-0.0509425,VALID,18.2069,VALID,189,VALID,0.887109,
2001-01-07, 03:14:00,VALID,916.326,VALID,0,VALID,99.1508,VALID,-0.0849042,VALID,18.2138,VALID,188,VALID,0.908454,
2001-01-07, 03:15:00,VALID,916.307,VALID,0,VALID,99.1699,VALID,-0.0679233,VALID,18.2141,VALID,188,VALID,0.823242,
2001-01-07, 03:16:00,VALID,916.299,VALID,0,VALID,99.1508,VALID,-0.0679233,VALID,18.2044,VALID,185,VALID,0.731291,
2001-01-07, 03:17:00,VALID,916.296,VALID,0,VALID,99.1864,VALID,-0.0509425,VALID,18.188,VALID,185,VALID,0.839844,
2001-01-07, 03:18:00,VALID,916.273,VALID,0,VALID,99.203,VALID,-0.0679233,VALID,18.1845,VALID,186,VALID,0.840144,
2001-01-07, 03:19:00,VALID,916.243,VALID,0,VALID,99.1813,VALID,-0.0679233,VALID,18.1751,VALID,191,VALID,0.913477,
2001-01-07, 03:20:00,VALID,916.24,VALID,0,VALID,99.1305,VALID,-0.0169808,VALID,18.1296,VALID,194,VALID,0.572163,
2001-01-07, 03:21:00,VALID,916.227,VALID,0,VALID,99.1216,VALID,0,VALID,18.0805,VALID,208,VALID,0.328516,
2001-01-07, 03:22:00,VALID,916.218,VALID,0,VALID,99.1178,VALID,0.0169808,VALID,18.0256,VALID,203,VALID,0.315705,
2001-01-07, 03:23:00,VALID,916.198,VALID,0,VALID,99.1546,VALID,0,VALID,17.9938,VALID,212,VALID,0.452148,
2001-01-07, 03:24:00,VALID,916.196,VALID,0,VALID,99.1941,VALID,-0.0169808,VALID,17.9866,VALID,203,VALID,0.705181,
2001-01-07, 03:25:00,VALID,916.186,VALID,0,VALID,99.2258,VALID,0,VALID,17.9905,VALID,197,VALID,0.936914,
2001-01-07, 03:26:00,VALID,916.172,VALID,0,VALID,99.2347,VALID,0,VALID,17.9836,VALID,195,VALID,1.04187,
2001-01-07, 03:27:00,VALID,916.179,VALID,0,VALID,99.2462,VALID,0,VALID,17.9675,VALID,200,VALID,0.804297,
2001-01-07, 03:28:00,VALID,916.19,VALID,0,VALID,99.2742,VALID,0,VALID,17.9711,VALID,197,VALID,0.824424,
2001-01-07, 03:29:00,VALID,916.196,VALID,0,VALID,99.2716,VALID,-0.0169808,VALID,17.9612,VALID,181,VALID,0.8,
2001-01-07, 03:30:00,VALID,916.2,VALID,0,VALID,99.2882,VALID,0,VALID,17.9645,VALID,185,VALID,0.949319,
2001-01-07, 03:31:00,VALID,916.172,VALID,0,VALID,99.2971,VALID,-0.0169808,VALID,17.9645,VALID,202,VALID,0.926758,
2001-01-07, 03:32:00,VALID,916.19,VALID,0,VALID,99.3212,VALID,-0.0169808,VALID,17.9617,VALID,208,VALID,0.672081,
2001-01-07, 03:33:00,VALID,916.179,VALID,0,VALID,99.3352,VALID,0,VALID,17.9515,VALID,210,VALID,0.657422,
2001-01-07, 03:34:00,VALID,916.18,VALID,0,VALID,99.3594,VALID,0,VALID,17.9545,VALID,208,VALID,0.540064,
2001-01-07, 03:35:00,VALID,916.165,VALID,0,VALID,99.3683,VALID,0,VALID,17.9617,VALID,194,VALID,0.660547,
2001-01-07, 03:36:00,VALID,916.137,VALID,0,VALID,99.339,VALID,-0.0169808,VALID,17.922,VALID,194,VALID,0.760896,
2001-01-07, 03:37:00,VALID,916.14,VALID,0,VALID,99.3339,VALID,-0.0339617,VALID,17.913,VALID,206,VALID,0.668359,
2001-01-07, 03:38:00,VALID,916.134,VALID,0,VALID,99.3657,VALID,-0.0169808,VALID,17.8994,VALID,208,VALID,0.724359,
2001-01-07, 03:39:00,VALID,916.142,VALID,0,VALID,99.428,VALID,-0.0169808,VALID,17.9225,VALID,216,VALID,0.788086,
2001-01-07, 03:40:00,VALID,916.154,VALID,0,VALID,99.4624,VALID,0,VALID,17.9677,VALID,221,VALID,0.604235,
2001-01-07, 03:41:00,VALID,916.147,VALID,0,VALID,99.4764,VALID,0,VALID,17.9868,VALID,222,VALID,0.799805,
2001-01-07, 03:42:00,VALID,916.141,VALID,0,VALID,99.4675,VALID,-0.0169808,VALID,18.0136,VALID,212,VALID,0.485777,